Weather History for KHFJ - July, 2013

Change the Weather History Date:

Tuesday, July 9, 2013

  Actual Average (KJLN) Record (KJLN)
Temperature  
Mean Temperature 84 °F 80 °F  
Max Temperature 95 °F 90 °F 102 °F (1980)
Min Temperature 73 °F 70 °F 56 °F (1952)
Degree Days  
Heating Degree Days 0 0  
Month to date heating degree days 0  
Since 1 June heating degree days 5  
Since 1 July heating degree days 0  
Cooling Degree Days 19 15  
Month to date cooling degree days 131  
Year to date cooling degree days 629  
Since 1 June cooling degree days 449  
Growing Degree Days 34 (Base 50)    
Moisture  
Dew Point 68 °F    
Average Humidity 63    
Maximum Humidity 83    
Minimum Humidity 41    
Precipitation  
Precipitation 0.00 in 0.14 in 2.83 in (1950)
Month to date precipitation 1.27  
Year to date precipitation 25.08  
Sea Level Pressure  
Sea Level Pressure 30.05 in    
Wind  
Wind Speed 8 mph (SSW)    
Max Wind Speed 16 mph    
Max Gust Speed 21 mph    
Visibility 10 miles    
Events      
T = Trace of Precipitation, MM = Missing Value Source: NWS Daily Summary

Daily Weather History Graph

Daily Weather History Graph

Search for Another Location

Airport or City:

Trip Planner

Search our weather history database for the weather conditions in past years. The results will help you decide how hot, cold, wet, or windy it might be!

Date:

Astronomy

Jul. 09, 2013 Rise Set
Actual Time 6:04 AM CDT 8:37 PM CDT
Civil Twilight 5:34 AM CDT 9:07 PM CDT
Nautical Twilight 4:56 AM CDT 9:45 PM CDT
Astronomical Twilight 4:15 AM CDT 10:27 PM CDT
Moon 7:26 AM CDT (7/9) 9:19 PM CDT (7/9)
Length of Visible Light 15h 33m
Length of Day
14h 32m
New Moon, 2% of the Moon is Illuminated
Jul 9
New Moon
Jul 15
First Quarter
Jul 22
Full
Jul 29
Last Quarter
Aug 6
New

Hourly Weather History & Observations

Time (CDT) Temp. Heat Index Dew Point Humidity Pressure Visibility Wind Dir Wind Speed Gust Speed Precip Events Conditions
12:15 AM 75.2 °F - 68.0 °F 78% 30.08 in 10.0 mi South 5.8 mph - N/A   Clear
12:35 AM 75.2 °F - 68.0 °F 78% 30.08 in 10.0 mi South 3.5 mph - N/A   Clear
12:55 AM 73.4 °F - 68.0 °F 83% 30.08 in 10.0 mi South 5.8 mph - N/A   Clear
1:15 AM 75.2 °F - 68.0 °F 78% 30.07 in 10.0 mi SSE 5.8 mph - N/A   Clear
1:35 AM 75.2 °F - 68.0 °F 78% 30.07 in 10.0 mi South 5.8 mph - N/A   Clear
1:55 AM 75.2 °F - 68.0 °F 78% 30.07 in 10.0 mi South 6.9 mph - N/A   Clear
2:15 AM 75.2 °F - 68.0 °F 78% 30.07 in 10.0 mi South 6.9 mph - N/A   Clear
2:35 AM 75.2 °F - 68.0 °F 78% 30.07 in 10.0 mi South 5.8 mph - N/A   Clear
2:55 AM 77.0 °F - 68.0 °F 74% 30.07 in 10.0 mi South 8.1 mph - N/A   Clear
3:15 AM 75.2 °F - 68.0 °F 78% 30.07 in 10.0 mi South 6.9 mph - N/A   Clear
3:35 AM 75.2 °F - 68.0 °F 78% 30.08 in 10.0 mi South 4.6 mph - N/A   Clear
3:55 AM 73.4 °F - 68.0 °F 83% 30.08 in 10.0 mi South 5.8 mph - N/A   Clear
4:15 AM 73.4 °F - 68.0 °F 83% 30.08 in 10.0 mi South 5.8 mph - N/A   Clear
4:35 AM 73.4 °F - 68.0 °F 83% 30.08 in 10.0 mi South 6.9 mph - N/A   Clear
4:55 AM 73.4 °F - 68.0 °F 83% 30.08 in 10.0 mi South 9.2 mph - N/A   Clear
5:15 AM 73.4 °F - 68.0 °F 83% 30.07 in 10.0 mi South 8.1 mph - N/A   Clear
5:35 AM 73.4 °F - 68.0 °F 83% 30.07 in 10.0 mi South 8.1 mph - N/A   Clear
5:55 AM 73.4 °F - 68.0 °F 83% 30.07 in 10.0 mi South 9.2 mph - N/A   Clear
6:15 AM 73.4 °F - 68.0 °F 83% 30.08 in 10.0 mi South 9.2 mph - N/A   Clear
6:35 AM 75.2 °F - 68.0 °F 78% 30.08 in 10.0 mi South 8.1 mph - N/A   Clear
6:55 AM 75.2 °F - 68.0 °F 78% 30.08 in 10.0 mi South 10.4 mph - N/A   Clear
7:15 AM 77.0 °F - 69.8 °F 78% 30.09 in 10.0 mi South 9.2 mph - N/A   Clear
7:35 AM 77.0 °F - 69.8 °F 78% 30.09 in 10.0 mi South 9.2 mph - N/A   Clear
7:55 AM 78.8 °F - 69.8 °F 74% 30.10 in 10.0 mi SSW 11.5 mph - N/A   Clear
8:15 AM 78.8 °F - 69.8 °F 74% 30.10 in 10.0 mi SSW 10.4 mph 16.1 mph N/A   Clear
8:35 AM 80.6 °F 83.9 °F 69.8 °F 70% 30.11 in 10.0 mi SSW 13.8 mph - N/A   Clear
8:55 AM 80.6 °F 83.9 °F 69.8 °F 70% 30.11 in 10.0 mi SSW 10.4 mph 16.1 mph N/A   Clear
9:15 AM 80.6 °F 83.9 °F 69.8 °F 70% 30.10 in 10.0 mi SSW 12.7 mph - N/A   Clear
9:35 AM 82.4 °F 86.3 °F 69.8 °F 66% 30.10 in 10.0 mi SSW 11.5 mph - N/A   Clear
9:55 AM 82.4 °F 86.3 °F 69.8 °F 66% 30.10 in 10.0 mi SW 10.4 mph - N/A   Clear
10:15 AM 86.0 °F 90.4 °F 69.8 °F 58% 30.09 in 10.0 mi SSW 12.7 mph - N/A   Clear
10:35 AM 86.0 °F 90.4 °F 69.8 °F 58% 30.10 in 10.0 mi SW 12.7 mph - N/A   Clear
10:55 AM 86.0 °F 89.4 °F 68.0 °F 55% 30.10 in 10.0 mi WSW 15.0 mph - N/A   Clear
11:15 AM 87.8 °F 91.4 °F 68.0 °F 52% 30.10 in 10.0 mi SW 11.5 mph - N/A   Clear
11:35 AM 87.8 °F 91.4 °F 68.0 °F 52% 30.09 in 10.0 mi SSW 12.7 mph 18.4 mph N/A   Clear
11:55 AM 87.8 °F 91.4 °F 68.0 °F 52% 30.08 in 10.0 mi SSW 10.4 mph - N/A   Clear
12:15 PM 89.6 °F 93.4 °F 68.0 °F 49% 30.08 in 10.0 mi SSW 13.8 mph 19.6 mph N/A   Clear
12:35 PM 91.4 °F 96.8 °F 69.8 °F 49% 30.07 in 10.0 mi SW 13.8 mph 20.7 mph N/A   Clear
12:55 PM 91.4 °F 96.8 °F 69.8 °F 49% 30.07 in 10.0 mi SSW 13.8 mph 19.6 mph N/A   Clear
1:15 PM 89.6 °F 93.4 °F 68.0 °F 49% 30.06 in 10.0 mi South 12.7 mph - N/A   Clear
1:35 PM 91.4 °F 95.4 °F 68.0 °F 46% 30.06 in 10.0 mi South 12.7 mph 18.4 mph N/A   Clear
1:55 PM 91.4 °F 95.4 °F 68.0 °F 46% 30.05 in 10.0 mi SW 12.7 mph 18.4 mph N/A   Clear
2:15 PM 91.4 °F 95.4 °F 68.0 °F 46% 30.05 in 10.0 mi WSW 12.7 mph 17.3 mph N/A   Clear
2:35 PM 93.2 °F 97.7 °F 68.0 °F 44% 30.04 in 10.0 mi SSW 11.5 mph 16.1 mph N/A   Clear
2:55 PM 93.2 °F 96.2 °F 66.2 °F 41% 30.03 in 10.0 mi SW 11.5 mph 20.7 mph N/A   Clear
3:15 PM 93.2 °F 97.7 °F 68.0 °F 44% 30.03 in 10.0 mi South 12.7 mph 20.7 mph N/A   Clear
3:35 PM 93.2 °F 97.7 °F 68.0 °F 44% 30.03 in 10.0 mi SSW 16.1 mph - N/A   Clear
3:55 PM 93.2 °F 97.7 °F 68.0 °F 44% 30.03 in 10.0 mi SSW 13.8 mph 17.3 mph N/A   Clear
4:15 PM 93.2 °F 97.7 °F 68.0 °F 44% 30.02 in 10.0 mi SW 15.0 mph 19.6 mph N/A   Clear
4:35 PM 95.0 °F 99.5 °F 68.0 °F 41% 30.02 in 10.0 mi SW 11.5 mph - N/A   Clear
4:55 PM 93.2 °F 97.7 °F 68.0 °F 44% 30.01 in 10.0 mi SW 11.5 mph 17.3 mph N/A   Scattered Clouds
5:15 PM 93.2 °F 97.7 °F 68.0 °F 44% 30.01 in 10.0 mi SW 9.2 mph - N/A   Scattered Clouds
5:35 PM 93.2 °F 97.7 °F 68.0 °F 44% 30.01 in 10.0 mi SW 11.5 mph 16.1 mph N/A   Scattered Clouds
5:55 PM 91.4 °F 95.4 °F 68.0 °F 46% 30.01 in 10.0 mi SW 10.4 mph - N/A   Scattered Clouds
6:15 PM 91.4 °F 95.4 °F 68.0 °F 46% 30.00 in 10.0 mi SW 10.4 mph - N/A   Scattered Clouds
6:35 PM 91.4 °F 95.4 °F 68.0 °F 46% 30.01 in 10.0 mi SW 9.2 mph - N/A   Scattered Clouds
6:55 PM 91.4 °F 95.4 °F 68.0 °F 46% 30.00 in 10.0 mi SW 8.1 mph - N/A   Scattered Clouds
7:15 PM 89.6 °F 93.4 °F 68.0 °F 49% 30.00 in 10.0 mi SW 6.9 mph - N/A   Clear
7:35 PM 89.6 °F 93.4 °F 68.0 °F 49% 30.00 in 10.0 mi SSW 10.4 mph - N/A   Clear
7:55 PM 87.8 °F 91.4 °F 68.0 °F 52% 29.99 in 10.0 mi SSW 8.1 mph - N/A   Clear
8:15 PM 86.0 °F 89.4 °F 68.0 °F 55% 29.99 in 10.0 mi South 6.9 mph - N/A   Clear
8:35 PM 84.2 °F 87.3 °F 68.0 °F 58% 29.98 in 10.0 mi South 5.8 mph - N/A   Clear
8:55 PM 82.4 °F 85.4 °F 68.0 °F 62% 29.99 in 10.0 mi South 6.9 mph - N/A   Clear
9:15 PM 82.4 °F 85.4 °F 68.0 °F 62% 29.99 in 10.0 mi South 6.9 mph - N/A   Clear
9:35 PM 80.6 °F 83.2 °F 68.0 °F 65% 30.00 in 10.0 mi South 5.8 mph - N/A   Clear
9:55 PM 80.6 °F 83.2 °F 68.0 °F 65% 30.00 in 10.0 mi South 8.1 mph - N/A   Clear
10:15 PM 80.6 °F 83.2 °F 68.0 °F 65% 30.00 in 10.0 mi South 8.1 mph - N/A   Clear
10:35 PM 80.6 °F 83.2 °F 68.0 °F 65% 30.01 in 10.0 mi South 5.8 mph - N/A   Clear
10:55 PM 80.6 °F 83.2 °F 68.0 °F 65% 30.01 in 10.0 mi South 5.8 mph - N/A   Clear
11:15 PM 78.8 °F - 68.0 °F 69% 30.01 in 10.0 mi South 5.8 mph - N/A   Clear
11:35 PM 78.8 °F - 68.0 °F 69% 30.01 in 10.0 mi South 5.8 mph - N/A   Clear
11:55 PM 78.8 °F - 68.0 °F 69% 30.02 in 10.0 mi SSW 3.5 mph - N/A   Clear